Year,Month,Day,Hour,Minute,Value (Times are PST for windspeed in km/hr)
2007,11,12,03,58,13.50
2007,11,12,03,59,12.80
2007,11,12,04,00,11.90
2007,11,12,04,01,16.00
2007,11,12,04,02,15.00
2007,11,12,04,03,13.20
2007,11,12,04,04,11.50
2007,11,12,04,05,9.30
2007,11,12,04,06,10.10
2007,11,12,04,07,14.30
2007,11,12,04,08,10.70
2007,11,12,04,09,7.90
2007,11,12,04,10,10.80
2007,11,12,04,11,11.60
2007,11,12,04,12,9.80
2007,11,12,04,13,11.40
2007,11,12,04,14,10.90
2007,11,12,04,15,12.60
2007,11,12,04,16,10.40
2007,11,12,04,17,10.40
2007,11,12,04,18,11.70
2007,11,12,04,19,11.90
2007,11,12,04,20,13.80
2007,11,12,04,21,14.10
2007,11,12,04,22,9.90
2007,11,12,04,23,7.50
2007,11,12,04,24,10.20
2007,11,12,04,25,16.50
2007,11,12,04,26,16.40
2007,11,12,04,27,15.70
2007,11,12,04,28,17.60
2007,11,12,04,29,15.40
2007,11,12,04,30,15.40
2007,11,12,04,31,15.20
2007,11,12,04,32,10.90
2007,11,12,04,33,13.50
2007,11,12,04,34,11.00
2007,11,12,04,35,15.20
2007,11,12,04,36,13.30
2007,11,12,04,37,16.60
2007,11,12,04,38,10.00
2007,11,12,04,39,20.70
2007,11,12,04,40,27.00
2007,11,12,04,41,15.70
2007,11,12,04,42,19.70
2007,11,12,04,43,17.60
2007,11,12,04,44,9.90
2007,11,12,04,45,23.50
2007,11,12,04,46,19.10
2007,11,12,04,47,15.10
2007,11,12,04,48,15.40
2007,11,12,04,49,16.20
2007,11,12,04,50,12.40
2007,11,12,04,51,28.30
2007,11,12,04,52,15.80
2007,11,12,04,53,22.80
2007,11,12,04,54,31.20
2007,11,12,04,55,23.80
2007,11,12,04,56,17.90
2007,11,12,04,57,18.90
2007,11,12,04,58,11.90
2007,11,12,04,59,26.80
2007,11,12,05,00,21.90
2007,11,12,05,01,21.30
2007,11,12,05,02,19.90
2007,11,12,05,03,29.10
2007,11,12,05,04,25.20
2007,11,12,05,05,23.80
2007,11,12,05,06,16.80
2007,11,12,05,07,17.10
2007,11,12,05,08,23.80
2007,11,12,05,09,23.00
2007,11,12,05,10,26.70
2007,11,12,05,11,21.00
2007,11,12,05,12,27.50
2007,11,12,05,13,25.80
2007,11,12,05,14,24.60
2007,11,12,05,15,20.50
2007,11,12,05,16,15.30
2007,11,12,05,17,18.10
2007,11,12,05,18,17.70
2007,11,12,05,19,24.90
2007,11,12,05,20,31.30
2007,11,12,05,21,17.70
2007,11,12,05,22,18.80
2007,11,12,05,23,21.30
2007,11,12,05,24,22.10
2007,11,12,05,25,18.30
2007,11,12,05,26,25.20
2007,11,12,05,27,15.30
2007,11,12,05,28,18.00
2007,11,12,05,29,20.70
2007,11,12,05,30,15.80
2007,11,12,05,31,23.70
2007,11,12,05,32,26.70
2007,11,12,05,33,21.60
2007,11,12,05,34,22.50
2007,11,12,05,35,21.40
2007,11,12,05,36,15.50
2007,11,12,05,37,24.90
2007,11,12,05,38,27.80
2007,11,12,05,39,25.40
2007,11,12,05,40,25.70
2007,11,12,05,41,23.50
2007,11,12,05,42,31.10
2007,11,12,05,43,18.70
2007,11,12,05,44,35.60
2007,11,12,05,45,21.70
2007,11,12,05,46,25.80
2007,11,12,05,47,26.40
2007,11,12,05,48,21.00
2007,11,12,05,49,22.30
2007,11,12,05,50,14.10
2007,11,12,05,51,28.00
2007,11,12,05,52,27.40
2007,11,12,05,53,18.20
2007,11,12,05,54,23.40
2007,11,12,05,55,23.50
2007,11,12,05,56,29.60
2007,11,12,05,57,17.90
2007,11,12,05,58,26.90
2007,11,12,05,59,31.40
2007,11,12,06,00,34.00
2007,11,12,06,01,15.50
2007,11,12,06,02,21.20
2007,11,12,06,03,14.40
2007,11,12,06,04,29.50
2007,11,12,06,05,20.80
2007,11,12,06,06,28.70
2007,11,12,06,07,17.50
2007,11,12,06,08,20.00
2007,11,12,06,09,19.10
2007,11,12,06,10,18.00
2007,11,12,06,11,22.40
2007,11,12,06,12,24.00
2007,11,12,06,13,18.40
2007,11,12,06,14,31.40
2007,11,12,06,15,18.70
2007,11,12,06,16,16.30
2007,11,12,06,17,16.90
2007,11,12,06,18,27.70
2007,11,12,06,19,22.30
2007,11,12,06,20,19.50
2007,11,12,06,21,27.60
2007,11,12,06,22,27.50
2007,11,12,06,23,14.10
2007,11,12,06,24,18.30
2007,11,12,06,25,17.90
2007,11,12,06,26,25.80
2007,11,12,06,27,23.70
2007,11,12,06,28,30.30
2007,11,12,06,29,20.70
2007,11,12,06,30,31.90
2007,11,12,06,31,26.80
2007,11,12,06,32,23.30
2007,11,12,06,33,24.80
2007,11,12,06,34,20.20
2007,11,12,06,35,22.90
2007,11,12,06,36,22.90
2007,11,12,06,37,19.90
2007,11,12,06,38,29.30
2007,11,12,06,39,25.70
2007,11,12,06,40,30.40
2007,11,12,06,41,24.90
2007,11,12,06,42,24.80
2007,11,12,06,43,13.00
2007,11,12,06,44,16.90
2007,11,12,06,45,13.70
2007,11,12,06,46,21.30
2007,11,12,06,47,23.20
2007,11,12,06,48,28.20
2007,11,12,06,49,37.40
2007,11,12,06,50,27.40
2007,11,12,06,51,28.50
2007,11,12,06,52,14.40
2007,11,12,06,53,32.60
2007,11,12,06,54,20.90
2007,11,12,06,55,32.10
2007,11,12,06,56,22.30
2007,11,12,06,57,22.10
2007,11,12,06,58,29.50
2007,11,12,06,59,25.30
2007,11,12,07,00,29.10
2007,11,12,07,01,20.40
2007,11,12,07,02,22.30
2007,11,12,07,03,20.30
2007,11,12,07,04,27.30
2007,11,12,07,05,20.70
2007,11,12,07,06,37.80
2007,11,12,07,07,26.30
2007,11,12,07,08,34.40
2007,11,12,07,09,34.40
2007,11,12,07,10,23.40
2007,11,12,07,11,31.00
2007,11,12,07,12,23.50
2007,11,12,07,13,32.30
2007,11,12,07,14,27.40
2007,11,12,07,15,25.40
2007,11,12,07,16,31.20
2007,11,12,07,17,30.60
2007,11,12,07,18,31.10
2007,11,12,07,19,34.30
2007,11,12,07,20,30.40
2007,11,12,07,21,30.70
2007,11,12,07,22,34.30
2007,11,12,07,23,26.70
2007,11,12,07,24,27.00
2007,11,12,07,25,22.40
2007,11,12,07,26,36.60
2007,11,12,07,27,42.00
2007,11,12,07,28,33.00
2007,11,12,21,08,0.00
2007,11,12,21,09,1.30
2007,11,12,21,10,0.70
2007,11,12,21,11,10.70
2007,11,12,21,12,12.50
2007,11,12,21,13,7.20
2007,11,12,21,14,1.40
2007,11,12,21,15,0.90
2007,11,12,21,16,2.90
2007,11,12,21,17,3.60
2007,11,12,21,18,4.10
2007,11,12,21,19,2.60
2007,11,12,21,20,1.30
2007,11,12,21,21,2.10
2007,11,12,21,22,9.30
2007,11,12,21,23,3.80
2007,11,12,21,24,5.60
2007,11,12,21,25,1.70
2007,11,12,21,26,1.30
2007,11,12,21,27,5.60
2007,11,12,21,28,4.60
2007,11,12,21,29,11.60
2007,11,12,21,30,11.30
2007,11,12,21,31,6.70
2007,11,12,21,32,3.50
2007,11,12,21,33,5.40
2007,11,12,21,34,8.10
2007,11,12,21,35,10.20
2007,11,12,21,36,6.80
2007,11,12,21,37,10.70
2007,11,12,21,38,11.50
2007,11,12,21,39,8.20
2007,11,12,21,40,11.90
2007,11,12,21,41,6.80
2007,11,12,21,42,2.80
2007,11,12,21,43,7.40
2007,11,12,21,44,5.70
2007,11,12,21,45,7.80
2007,11,12,21,46,1.30
2007,11,12,21,47,8.20
2007,11,12,21,48,11.60
2007,11,12,21,49,8.70
2007,11,12,21,50,9.40
2007,11,12,21,51,5.60
2007,11,12,21,52,10.70
2007,11,12,21,53,8.00
2007,11,12,21,54,11.30
2007,11,12,21,55,6.20
2007,11,12,21,56,5.80
2007,11,12,21,57,9.20
2007,11,12,21,58,3.30
2007,11,12,21,59,3.20
2007,11,12,22,00,8.10
2007,11,12,22,01,3.60
2007,11,12,22,02,8.30
2007,11,12,22,03,4.10
2007,11,12,22,04,3.80
2007,11,12,22,05,7.30
2007,11,12,22,06,1.30
2007,11,12,22,07,7.80
2007,11,12,22,08,8.90
2007,11,12,22,09,4.80
2007,11,12,22,10,3.90
2007,11,12,22,11,6.50
2007,11,12,22,12,11.70
2007,11,12,22,13,5.10
2007,11,12,22,14,3.10
2007,11,12,22,15,6.10
2007,11,12,22,16,2.60
2007,11,12,22,17,4.70
2007,11,12,22,18,5.10
2007,11,12,22,19,2.30
2007,11,12,22,20,2.60
2007,11,12,22,21,4.00
2007,11,12,22,22,6.60
2007,11,12,22,23,6.40
2007,11,12,22,24,4.00
2007,11,12,22,25,2.90
2007,11,12,22,26,1.00
2007,11,12,22,27,4.70
2007,11,12,22,28,6.70
2007,11,12,22,29,8.00
2007,11,12,22,30,6.20
2007,11,12,22,31,3.00
2007,11,12,22,32,4.40
2007,11,12,22,33,2.10
2007,11,12,22,34,0.20
2007,11,12,22,35,3.30
2007,11,12,22,36,4.70
2007,11,12,22,37,2.90
2007,11,12,22,38,6.20
2007,11,12,22,39,2.80
2007,11,12,22,40,5.60
2007,11,12,22,41,3.30
2007,11,12,22,42,2.60
2007,11,12,22,43,4.30
2007,11,12,22,44,5.90
2007,11,12,22,45,8.10
2007,11,12,22,46,4.60
2007,11,12,22,47,4.00
2007,11,12,22,48,2.00
2007,11,12,22,49,1.90
2007,11,12,22,50,1.40
2007,11,12,22,51,1.80
2007,11,12,22,52,0.80
2007,11,12,22,53,1.00
2007,11,12,22,54,2.10
2007,11,12,22,55,4.90
2007,11,12,22,56,4.40
2007,11,12,22,57,5.70
2007,11,12,22,58,2.30
2007,11,12,22,59,5.20
2007,11,12,23,00,4.80
2007,11,12,23,01,3.30
2007,11,12,23,02,1.50
2007,11,12,23,03,2.70
2007,11,12,23,04,6.40
2007,11,12,23,05,8.60
2007,11,12,23,06,5.20
2007,11,12,23,07,1.10
2007,11,12,23,08,1.90
2007,11,12,23,09,1.80
2007,11,12,23,10,1.40
2007,11,12,23,11,6.50
2007,11,12,23,12,6.30
2007,11,12,23,13,2.80
2007,11,12,23,14,3.10
2007,11,12,23,15,2.90
2007,11,12,23,16,2.90
2007,11,12,23,17,7.00
2007,11,12,23,18,6.50
2007,11,12,23,19,5.90
2007,11,12,23,20,7.50
2007,11,12,23,21,2.40
2007,11,12,23,22,1.60
2007,11,12,23,23,0.00
2007,11,12,23,24,0.70
2007,11,12,23,25,2.80
2007,11,12,23,26,4.80
2007,11,12,23,27,6.50
2007,11,12,23,28,1.00
2007,11,12,23,29,3.20
2007,11,12,23,30,2.50
2007,11,12,23,31,6.90
2007,11,12,23,32,7.40
2007,11,12,23,33,7.50
2007,11,12,23,34,0.60
2007,11,12,23,35,1.30
2007,11,12,23,36,2.10
2007,11,12,23,37,0.40
2007,11,12,23,38,3.40
2007,11,12,23,39,6.70
2007,11,12,23,40,3.40
2007,11,12,23,41,1.20
2007,11,12,23,42,3.30
2007,11,12,23,43,3.90
2007,11,12,23,44,3.60
2007,11,12,23,45,7.00
2007,11,12,23,46,2.20
2007,11,12,23,47,5.30
2007,11,12,23,48,8.40
2007,11,12,23,49,4.10
2007,11,12,23,50,6.40
2007,11,12,23,51,11.00
2007,11,12,23,52,6.80
2007,11,12,23,53,2.70
2007,11,12,23,54,4.40
2007,11,12,23,55,4.60
2007,11,12,23,56,12.00
2007,11,12,23,57,8.60
2007,11,12,23,58,11.40
2007,11,12,23,59,7.70
